User: anonymous   Login
Location: Columbus
(29.5618°N, 96.6770°W)
Time: 10:32:08
(UTC-05:00)
Language:

Cosmos 2056 Rocket - Orbit

View from above orbital plane
View from above orbital plane
View from above satellite
View from above satellite

Ground track
Ground track

The orbit data is extracted from the following two-line orbital elements,

1 20433U 90004B   16121.82723432  .00000060  00000-0  29690-4 0  9993
2 20433  74.0381  33.1317 0042065 262.9044 151.7908 14.35928467376016
Epoch (UTC): 30 April 2016 19:51:13
Eccentricity: 0.0042065
inclination: 74.0381°
perigee height: 742 km
apogee height: 802 km
right ascension of ascending node: 33.1317°
argument of perigee: 262.9044°
revolutions per day: 14.35928467
mean anomaly at epoch: 151.7908°
orbit number at epoch: 37601

The dashed part of the orbit path shows where the satellite is in the earth's shadow,  

DLR